Time,TemperatureF,DewpointF,PressureIn,WindDirection,WindDirectionDegrees,WindSpeedMPH,WindSpeedGustMPH,Humidity,HourlyPrecipIn,Conditions,Clouds,dailyrainin,SolarRadiationWatts/m^2,SoftwareType,DateUTC
2013-08-22 00:02:00,73.0,37.0,-100.00,NW,308,4.0,7.0,27,0.00,,,0.00,0.000000,,2013-08-22 07:02:00,
2013-08-22 00:11:00,73.0,37.0,-100.00,NW,308,4.0,7.0,27,0.00,,,0.00,0.000000,,2013-08-22 07:11:00,
2013-08-22 00:21:00,73.0,37.0,-100.00,NW,308,4.0,7.0,27,0.00,,,0.00,0.000000,,2013-08-22 07:21:00,
2013-08-22 00:52:00,71.0,36.0,-100.00,WNW,296,0.0,7.0,28,0.00,,,0.00,0.000000,,2013-08-22 07:52:00,
2013-08-22 01:03:00,71.0,36.0,-100.00,WNW,296,0.0,7.0,28,0.00,,,0.00,0.000000,,2013-08-22 08:03:00,
2013-08-22 01:12:00,71.0,36.0,-100.00,WNW,296,0.0,7.0,28,0.00,,,0.00,0.000000,,2013-08-22 08:12:00,
2013-08-22 01:22:00,71.0,36.0,-100.00,WNW,296,0.0,7.0,28,0.00,,,0.00,0.000000,,2013-08-22 08:22:00,
2013-08-22 01:53:00,70.0,38.0,-100.00,NW,322,1.0,5.0,31,0.00,,,0.00,0.000000,,2013-08-22 08:53:00,
2013-08-22 02:01:00,70.0,38.0,-100.00,NW,322,1.0,5.0,31,0.00,,,0.00,0.000000,,2013-08-22 09:01:00,
2013-08-22 02:11:00,70.0,38.0,-100.00,NW,322,1.0,5.0,31,0.00,,,0.00,0.000000,,2013-08-22 09:11:00,
2013-08-22 02:22:00,70.0,38.0,-100.00,NW,322,1.0,5.0,31,0.00,,,0.00,0.000000,,2013-08-22 09:22:00,
2013-08-22 02:54:00,66.0,38.0,-100.00,East,83,4.0,6.0,35,0.00,,,0.00,0.000000,,2013-08-22 09:54:00,
2013-08-22 03:03:00,66.0,38.0,-100.00,East,83,4.0,6.0,35,0.00,,,0.00,0.000000,,2013-08-22 10:03:00,
2013-08-22 03:12:00,66.0,38.0,-100.00,East,83,4.0,6.0,35,0.00,,,0.00,0.000000,,2013-08-22 10:12:00,
2013-08-22 03:22:00,66.0,38.0,-100.00,East,83,4.0,6.0,35,0.00,,,0.00,0.000000,,2013-08-22 10:22:00,
2013-08-22 03:25:00,66.0,38.0,-100.00,NW,314,3.0,7.0,36,0.00,,,0.00,0.000000,,2013-08-22 10:25:00,
2013-08-22 05:52:00,65.0,39.0,-100.00,NW,304,1.0,4.0,38,0.00,,,0.00,0.000000,,2013-08-22 12:52:00,
2013-08-22 06:02:00,65.0,39.0,-100.00,NW,304,1.0,4.0,38,0.00,,,0.00,0.000000,,2013-08-22 13:02:00,
2013-08-22 06:12:00,65.0,39.0,-100.00,NW,304,1.0,4.0,38,0.00,,,0.00,0.000000,,2013-08-22 13:12:00,
2013-08-22 06:22:00,65.0,39.0,-100.00,NW,304,1.0,4.0,38,0.00,,,0.00,0.000000,,2013-08-22 13:22:00,
2013-08-22 06:52:00,66.0,39.0,-100.00,NNE,13,1.0,6.0,37,0.00,,,0.00,0.000000,,2013-08-22 13:52:00,
2013-08-22 07:01:00,66.0,39.0,-100.00,NNE,13,1.0,6.0,37,0.00,,,0.00,0.000000,,2013-08-22 14:01:00,
2013-08-22 07:11:00,66.0,39.0,-100.00,NNE,13,1.0,6.0,37,0.00,,,0.00,0.000000,,2013-08-22 14:11:00,
2013-08-22 07:21:00,66.0,39.0,-100.00,NNE,13,1.0,6.0,37,0.00,,,0.00,0.000000,,2013-08-22 14:21:00,
2013-08-22 07:52:00,72.0,40.0,-100.00,North,354,4.0,6.0,31,0.00,,,0.00,59.000000,,2013-08-22 14:52:00,
2013-08-22 08:01:00,72.0,40.0,-100.00,North,354,4.0,6.0,31,0.00,,,0.00,59.000000,,2013-08-22 15:01:00,
2013-08-22 08:11:00,72.0,40.0,-100.00,North,354,4.0,6.0,31,0.00,,,0.00,59.000000,,2013-08-22 15:11:00,
2013-08-22 08:22:00,72.0,40.0,-100.00,North,354,4.0,6.0,31,0.00,,,0.00,59.000000,,2013-08-22 15:22:00,
2013-08-22 08:55:00,76.0,39.0,-100.00,SW,224,5.0,11.0,26,0.00,,,0.00,304.000000,,2013-08-22 15:55:00,
2013-08-22 09:05:00,76.0,39.0,-100.00,SW,224,5.0,11.0,26,0.00,,,0.00,304.000000,,2013-08-22 16:05:00,
2013-08-22 09:14:00,76.0,39.0,-100.00,SW,224,5.0,11.0,26,0.00,,,0.00,304.000000,,2013-08-22 16:14:00,
2013-08-22 09:24:00,76.0,39.0,-100.00,SW,224,5.0,11.0,26,0.00,,,0.00,304.000000,,2013-08-22 16:24:00,
2013-08-22 09:54:00,82.0,37.0,-100.00,NW,315,4.0,10.0,20,0.00,,,0.00,538.000000,,2013-08-22 16:54:00,
2013-08-22 10:02:00,82.0,37.0,-100.00,NW,315,4.0,10.0,20,0.00,,,0.00,538.000000,,2013-08-22 17:02:00,
2013-08-22 10:12:00,82.0,37.0,-100.00,NW,315,4.0,10.0,20,0.00,,,0.00,538.000000,,2013-08-22 17:12:00,
2013-08-22 10:23:00,82.0,37.0,-100.00,NW,315,4.0,10.0,20,0.00,,,0.00,538.000000,,2013-08-22 17:23:00,
2013-08-22 10:53:00,86.0,36.0,-100.00,West,271,5.0,13.0,17,0.00,,,0.00,752.000000,,2013-08-22 17:53:00,
2013-08-22 11:02:00,86.0,36.0,-100.00,West,271,5.0,13.0,17,0.00,,,0.00,752.000000,,2013-08-22 18:02:00,
2013-08-22 11:12:00,86.0,36.0,-100.00,West,271,5.0,13.0,17,0.00,,,0.00,752.000000,,2013-08-22 18:12:00,
2013-08-22 11:21:00,86.0,36.0,-100.00,West,271,5.0,13.0,17,0.00,,,0.00,752.000000,,2013-08-22 18:21:00,
2013-08-22 12:22:00,88.0,31.0,-100.00,NW,326,4.0,16.0,13,0.00,,,0.00,922.000000,,2013-08-22 19:22:00,
2013-08-22 12:53:00,89.0,34.0,-100.00,ESE,111,12.0,20.0,14,0.00,,,0.00,1028.000000,,2013-08-22 19:53:00,
2013-08-22 13:02:00,89.0,34.0,-100.00,ESE,111,12.0,20.0,14,0.00,,,0.00,1028.000000,,2013-08-22 20:02:00,
2013-08-22 13:11:00,89.0,34.0,-100.00,ESE,111,12.0,20.0,14,0.00,,,0.00,1028.000000,,2013-08-22 20:11:00,
2013-08-22 13:23:00,89.0,34.0,-100.00,ESE,111,12.0,20.0,14,0.00,,,0.00,1028.000000,,2013-08-22 20:23:00,
2013-08-22 13:52:00,89.0,30.0,-100.00,ESE,104,12.0,25.0,12,0.00,,,0.00,1076.000000,,2013-08-22 20:52:00,
2013-08-22 14:02:00,89.0,30.0,-100.00,ESE,104,12.0,25.0,12,0.00,,,0.00,1076.000000,,2013-08-22 21:02:00,
2013-08-22 14:13:00,89.0,30.0,-100.00,ESE,104,12.0,25.0,12,0.00,,,0.00,1076.000000,,2013-08-22 21:13:00,
2013-08-22 14:22:00,89.0,30.0,-100.00,ESE,104,12.0,25.0,12,0.00,,,0.00,1076.000000,,2013-08-22 21:22:00,
2013-08-22 14:54:00,90.0,28.0,-100.00,East,100,9.0,31.0,11,0.00,,,0.00,1040.000000,,2013-08-22 21:54:00,
2013-08-22 15:05:00,90.0,28.0,-100.00,East,100,9.0,31.0,11,0.00,,,0.00,1040.000000,,2013-08-22 22:05:00,
2013-08-22 15:13:00,90.0,28.0,-100.00,East,100,9.0,31.0,11,0.00,,,0.00,1040.000000,,2013-08-22 22:13:00,
2013-08-22 15:24:00,90.0,28.0,-100.00,East,100,9.0,31.0,11,0.00,,,0.00,1040.000000,,2013-08-22 22:24:00,
2013-08-22 15:53:00,87.0,26.0,-100.00,NE,56,7.0,23.0,11,0.00,,,-99.99,678.000000,,2013-08-22 22:53:00,
2013-08-22 16:02:00,87.0,26.0,-100.00,NE,56,7.0,23.0,11,0.00,,,-99.99,678.000000,,2013-08-22 23:02:00,
2013-08-22 16:11:00,87.0,26.0,-100.00,NE,56,7.0,23.0,11,0.00,,,-99.99,678.000000,,2013-08-22 23:11:00,
2013-08-22 16:22:00,87.0,26.0,-100.00,NE,56,7.0,23.0,11,0.00,,,-99.99,678.000000,,2013-08-22 23:22:00,
2013-08-22 16:53:00,89.0,28.0,-100.00,WNW,300,5.0,22.0,11,0.00,,,0.00,715.000000,,2013-08-22 23:53:00,
2013-08-22 17:02:00,89.0,28.0,-100.00,WNW,300,5.0,22.0,11,0.00,,,0.00,715.000000,,2013-08-23 00:02:00,
2013-08-22 17:11:00,89.0,28.0,-100.00,WNW,300,5.0,22.0,11,0.00,,,0.00,715.000000,,2013-08-23 00:11:00,
2013-08-22 17:23:00,89.0,28.0,-100.00,WNW,300,5.0,22.0,11,0.00,,,0.00,715.000000,,2013-08-23 00:23:00,
2013-08-22 17:52:00,88.0,27.0,-100.00,WNW,296,10.0,21.0,11,0.00,,,0.00,593.000000,,2013-08-23 00:52:00,
2013-08-22 18:01:00,88.0,27.0,-100.00,WNW,296,10.0,21.0,11,0.00,,,0.00,593.000000,,2013-08-23 01:01:00,
2013-08-22 18:11:00,88.0,27.0,-100.00,WNW,296,10.0,21.0,11,0.00,,,0.00,593.000000,,2013-08-23 01:11:00,
2013-08-22 18:21:00,88.0,27.0,-100.00,WNW,296,10.0,21.0,11,0.00,,,0.00,593.000000,,2013-08-23 01:21:00,
2013-08-22 18:52:00,84.0,28.0,-100.00,WNW,301,10.0,21.0,13,0.00,,,0.00,341.000000,,2013-08-23 01:52:00,
2013-08-22 19:02:00,84.0,28.0,-100.00,WNW,301,10.0,21.0,13,0.00,,,0.00,341.000000,,2013-08-23 02:02:00,
2013-08-22 19:11:00,84.0,28.0,-100.00,WNW,301,10.0,21.0,13,0.00,,,0.00,341.000000,,2013-08-23 02:11:00,
2013-08-22 19:22:00,84.0,28.0,-100.00,WNW,301,10.0,21.0,13,0.00,,,0.00,341.000000,,2013-08-23 02:22:00,
2013-08-22 19:52:00,78.0,30.0,-100.00,WNW,293,8.0,17.0,17,0.00,,,0.00,105.000000,,2013-08-23 02:52:00,
2013-08-22 20:02:00,78.0,30.0,-100.00,WNW,293,8.0,17.0,17,0.00,,,0.00,105.000000,,2013-08-23 03:02:00,
2013-08-22 20:11:00,78.0,30.0,-100.00,WNW,293,8.0,17.0,17,0.00,,,0.00,105.000000,,2013-08-23 03:11:00,
2013-08-22 20:22:00,78.0,30.0,-100.00,WNW,293,8.0,17.0,17,0.00,,,0.00,105.000000,,2013-08-23 03:22:00,
2013-08-22 20:55:00,73.0,33.0,-100.00,WNW,302,3.0,12.0,23,0.00,,,0.00,1.000000,,2013-08-23 03:55:00,
2013-08-22 21:04:00,73.0,33.0,-100.00,WNW,302,3.0,12.0,23,0.00,,,0.00,1.000000,,2013-08-23 04:04:00,
2013-08-22 21:13:00,73.0,33.0,-100.00,WNW,302,3.0,12.0,23,0.00,,,0.00,1.000000,,2013-08-23 04:13:00,
2013-08-22 21:24:00,73.0,33.0,-100.00,WNW,302,3.0,12.0,23,0.00,,,0.00,1.000000,,2013-08-23 04:24:00,
2013-08-22 21:54:00,72.0,36.0,-100.00,NW,325,1.0,6.0,27,0.00,,,0.00,0.000000,,2013-08-23 04:54:00,
2013-08-22 22:03:00,72.0,36.0,-100.00,NW,325,1.0,6.0,27,0.00,,,0.00,0.000000,,2013-08-23 05:03:00,
2013-08-22 22:13:00,72.0,36.0,-100.00,NW,325,1.0,6.0,27,0.00,,,0.00,0.000000,,2013-08-23 05:13:00,
2013-08-22 22:22:00,72.0,36.0,-100.00,NW,325,1.0,6.0,27,0.00,,,0.00,0.000000,,2013-08-23 05:22:00,
2013-08-22 22:52:00,70.0,37.0,-100.00,NW,325,2.0,8.0,30,0.00,,,0.00,0.000000,,2013-08-23 05:52:00,
2013-08-22 23:02:00,70.0,37.0,-100.00,NW,325,2.0,8.0,30,0.00,,,0.00,0.000000,,2013-08-23 06:02:00,
2013-08-22 23:12:00,70.0,37.0,-100.00,NW,325,2.0,8.0,30,0.00,,,0.00,0.000000,,2013-08-23 06:12:00,
2013-08-22 23:21:00,70.0,37.0,-100.00,NW,325,2.0,8.0,30,0.00,,,0.00,0.000000,,2013-08-23 06:21:00,
2013-08-22 23:52:00,67.0,36.0,-100.00,WNW,293,3.0,6.0,32,0.00,,,-99.99,0.000000,,2013-08-23 06:52:00,